Date,TemperatureHighF,TemperatureAvgF,TemperatureLowF,DewpointHighF,DewpointAvgF,DewpointLowF,HumidityHigh,HumidityAvg,HumidityLow,PressureMaxIn,PressureMinIn,WindSpeedMaxMPH,WindSpeedAvgMPH,GustSpeedMaxMPH,PrecipitationSumIn
2013-1-1,26.0,18.8,11.1,17.0,10.4,6.0,84,71,49,30.27,30.12,0,0,0,0.00
2013-1-2,29.9,18.6,7.8,17.0,11.3,4.0,86,74,54,30.27,30.15,0,0,0,0.00
2013-1-3,32.5,27.3,19.0,27.0,20.9,15.0,88,77,61,30.32,30.14,0,0,0,0.00
2013-1-4,37.3,24.7,13.4,24.0,18.2,10.0,86,77,58,30.32,30.22,0,0,0,0.00
2013-1-5,37.1,29.7,18.4,34.0,26.4,15.0,94,87,70,30.28,29.98,0,0,0,0.02
2013-1-6,36.1,26.9,15.6,33.0,22.8,14.0,92,85,73,30.38,29.97,0,0,0,0.01
2013-1-7,40.3,27.4,13.1,29.0,22.4,11.0,91,82,64,30.38,30.14,0,0,0,0.00
2013-1-8,45.1,34.2,25.6,34.0,28.9,22.0,91,81,63,30.19,30.06,0,0,0,0.00
2013-1-9,50.5,38.9,25.2,36.0,29.3,21.0,88,71,42,30.51,30.05,0,0,0,0.00
2013-1-10,46.1,34.1,21.4,42.0,28.7,19.0,97,82,50,30.50,29.87,0,0,0,0.62
2013-1-11,53.0,49.6,43.5,51.0,48.0,43.0,98,94,89,29.86,29.69,0,0,0,0.25
2013-1-12,51.2,41.8,30.6,49.0,38.6,28.0,93,88,82,29.98,29.73,12,0,0,0.02
2013-1-13,30.7,22.9,14.5,29.0,19.6,10.0,94,87,80,30.30,29.88,0,0,0,0.00
2013-1-14,26.7,17.6,12.9,19.0,13.3,9.0,91,83,68,30.49,30.30,0,0,0,0.01
2013-1-15,31.2,21.3,11.3,23.0,16.9,9.0,92,83,65,30.48,30.15,0,0,0,0.00
2013-1-16,26.3,18.9,15.8,20.0,15.9,13.0,92,88,77,30.15,30.02,0,0,0,0.00
2013-1-18,42.0,38.6,37.9,32.0,31.2,31.0,77,75,69,30.05,29.97,0,0,0,0.01
2013-1-19,50.8,41.6,30.2,40.0,33.5,18.0,80,73,58,29.98,29.77,0,0,0,0.00
2013-1-20,29.3,19.5,14.9,15.0,9.3,6.0,73,65,56,30.33,30.00,0,0,0,0.00
2013-1-21,15.8,11.3,5.7,10.0,0.8,-5.0,81,64,46,30.35,30.20,0,0,0,0.00
2013-1-22,14.3,8.6,0.8,2.0,-0.9,-5.0,79,66,52,30.46,30.34,0,0,0,0.00
2013-1-23,24.9,17.7,13.3,14.0,8.0,2.0,77,66,58,30.40,30.15,0,0,0,0.00
2013-1-24,24.7,13.6,6.8,10.0,2.7,-2.0,71,63,45,30.67,30.39,0,0,0,0.00
2013-1-27,39.1,34.6,32.9,38.0,31.9,26.0,96,90,71,30.18,29.93,0,0,0,0.13
2013-1-28,50.5,46.2,40.1,50.0,45.3,39.0,98,96,95,29.94,29.79,0,0,0,0.01
2013-1-29,62.8,57.6,51.0,60.0,56.3,50.0,98,95,91,29.79,29.38,0,0,0,1.24
2013-1-30,51.1,37.1,21.5,51.0,35.4,17.0,98,93,83,29.70,29.22,0,0,0,0.25
2013-1-31,21.1,14.9,5.3,16.0,9.3,0.0,85,78,73,30.26,29.70,0,0,0,0.00
2013-2-1,19.5,10.4,2.2,16.0,4.2,-3.0,86,76,67,30.45,30.24,0,0,0,0.00
2013-2-2,26.9,19.1,8.9,24.0,15.2,5.0,92,85,76,30.23,30.04,0,0,0,0.00
2013-2-3,25.7,20.2,11.3,21.0,15.7,8.0,93,83,71,30.11,30.00,0,0,0,0.00
2013-2-4,33.1,26.4,16.8,27.0,22.4,13.0,88,84,77,30.06,29.84,0,0,0,0.01
2013-2-5,34.3,26.5,14.5,31.0,23.4,11.0,91,87,84,30.11,29.83,0,0,0,0.00
2013-2-6,40.7,33.4,22.1,34.0,28.5,19.0,91,82,72,30.24,30.12,0,0,0,0.00
2013-2-7,36.4,34.3,32.6,35.0,32.7,31.0,97,94,88,30.11,29.85,0,0,0,0.77
2013-2-8,32.5,27.3,23.7,31.0,24.6,21.0,94,89,86,30.42,29.98,0,0,0,0.00
2013-2-9,34.1,30.7,26.0,31.0,27.0,24.0,92,86,81,30.42,30.09,0,0,0,0.00
2013-2-10,47.6,40.5,32.8,46.0,38.3,30.0,95,91,75,30.09,29.51,0,0,0,0.30
2013-2-11,43.8,34.5,30.2,37.0,27.5,24.0,80,76,72,30.08,29.57,0,0,0,0.01
2013-2-12,32.1,28.9,25.2,26.0,24.3,23.0,92,83,75,30.14,29.95,0,0,0,0.00
2013-2-13,45.7,33.5,23.5,36.0,29.4,22.0,95,85,62,29.94,29.75,0,0,0,0.00
2013-2-14,41.1,36.8,33.3,34.0,31.8,29.0,93,82,69,30.00,29.68,0,0,0,0.00
2013-2-15,33.5,29.4,23.4,30.0,21.4,15.0,89,73,54,30.21,30.00,0,0,0,0.00
2013-2-16,25.1,18.9,11.6,15.0,10.3,7.0,80,69,58,30.23,30.15,0,0,0,0.00
2013-2-17,32.6,22.0,9.2,23.0,13.5,5.0,92,71,50,30.26,30.01,0,0,0,0.00
2013-2-18,49.7,33.7,27.8,40.0,27.4,23.0,93,78,69,30.01,29.54,0,0,0,0.26
2013-2-19,27.3,17.7,11.8,24.0,12.1,5.0,87,78,75,30.26,29.66,0,0,0,0.00
2013-2-20,24.6,16.2,8.3,18.0,10.2,3.0,86,77,68,30.41,30.27,0,0,0,0.00
2013-2-21,32.2,24.9,15.0,26.0,20.6,12.0,93,83,77,30.41,29.96,0,0,0,0.00
2013-2-22,34.7,29.7,26.2,33.0,27.1,24.0,96,90,79,29.96,29.82,0,0,0,0.05
2013-2-23,28.3,25.7,20.2,24.0,20.5,16.0,85,80,74,30.01,29.96,0,0,0,0.01
2013-2-24,36.4,25.8,13.9,27.0,20.4,11.0,92,81,62,30.16,30.01,2,0,0,0.20
2013-2-25,44.2,32.5,19.9,34.0,27.7,18.0,95,83,66,30.18,29.92,0,0,0,0.03
2013-2-26,35.2,33.8,32.8,33.0,30.9,28.0,96,89,76,29.92,29.49,0,0,0,0.20
2013-2-27,33.6,32.8,31.1,33.0,31.1,30.0,96,93,89,29.74,29.53,0,0,0,0.11
2013-2-28,35.8,33.8,30.3,32.0,30.3,24.0,94,87,78,30.08,29.75,0,0,0,0.05
2013-3-1,31.3,28.1,26.1,26.0,24.0,22.0,88,84,77,30.21,30.07,0,0,0,0.00
2013-3-2,29.6,25.2,16.4,24.0,19.6,12.0,92,79,67,30.22,30.17,3,0,0,0.00
2013-3-3,33.5,23.3,13.9,20.0,15.4,11.0,87,73,46,30.20,30.11,0,0,0,0.00
2013-3-4,34.6,30.0,24.3,29.0,24.6,20.0,87,80,73,30.14,29.97,0,0,0,0.00
2013-3-5,35.5,32.2,28.0,34.0,30.7,27.0,96,93,87,30.00,29.79,0,0,0,0.36
2013-3-6,31.3,29.3,27.7,27.0,26.1,25.0,95,88,83,30.34,30.01,0,0,0,0.06
2013-3-7,38.8,30.1,21.7,28.0,24.6,20.0,92,81,59,30.44,30.33,0,0,0,0.15
2013-3-8,37.7,28.3,15.2,31.0,24.2,13.0,95,85,73,30.50,30.32,0,0,0,0.01
2013-3-9,40.2,36.7,31.9,36.0,32.7,28.0,92,86,83,30.31,29.83,0,0,0,0.04
2013-3-10,51.0,43.2,36.9,47.0,41.6,35.0,97,94,85,29.88,29.58,0,0,0,0.94
2013-3-11,45.5,37.6,32.8,45.0,36.1,29.0,100,94,86,29.85,29.58,0,0,0,0.09
2013-3-12,38.9,32.3,27.9,32.0,27.2,21.0,93,81,71,30.07,29.85,0,0,0,0.03
2013-3-13,33.4,28.9,25.3,23.0,21.3,18.0,84,74,53,30.36,30.07,0,0,0,0.00
2013-3-14,36.0,30.6,23.6,33.0,26.6,19.0,94,85,70,30.36,30.09,0,0,0,0.03
2013-3-15,46.1,37.5,29.2,41.0,34.7,28.0,95,90,81,30.08,29.71,0,0,0,0.00
2013-3-16,37.6,34.5,31.5,35.0,31.7,27.0,100,89,82,30.13,29.68,0,0,0,0.00
2013-3-17,39.5,33.2,29.3,30.0,26.3,23.0,83,76,65,30.20,29.97,0,0,0,0.00
2013-3-18,37.2,31.7,24.3,35.0,28.3,16.0,100,87,71,29.97,29.65,0,0,0,0.08
2013-3-19,36.9,27.5,19.6,22.0,17.3,12.0,76,66,48,30.14,29.88,0,0,0,0.00
2013-3-20,28.0,22.7,16.0,20.0,13.3,8.0,83,68,57,30.16,30.07,0,0,0,0.00
2013-3-21,34.9,23.9,14.6,19.0,14.5,9.0,85,69,50,30.11,30.03,2,0,0,0.00
2013-3-22,42.4,29.8,17.2,23.0,19.7,15.0,92,68,43,30.09,30.02,0,0,0,0.00
2013-3-23,47.0,34.7,24.2,29.0,25.0,21.0,91,70,44,30.13,29.99,0,0,0,0.00
2013-3-24,37.0,33.5,30.8,31.0,28.3,26.0,95,82,70,30.02,29.65,0,0,0,0.00
2013-3-25,36.3,32.7,28.7,31.0,28.3,25.0,100,84,78,30.11,29.70,0,0,0,0.00
2013-3-26,39.9,35.6,32.6,31.0,28.6,27.0,84,76,62,30.28,30.10,0,0,0,0.00
2013-3-27,43.6,36.7,28.4,30.0,25.9,21.0,83,66,46,30.35,30.28,0,0,0,0.00
2013-3-28,51.2,36.4,26.0,31.0,26.5,21.0,89,70,44,30.38,30.28,0,0,0,0.00
2013-3-29,55.3,43.3,30.1,37.0,31.1,24.0,93,65,41,30.32,30.22,0,0,0,0.00
2013-3-30,59.2,44.6,28.0,44.0,34.3,22.0,85,69,48,30.25,29.87,0,0,0,0.00
2013-3-31,60.7,48.8,37.5,45.0,38.8,28.0,95,71,41,29.90,29.73,0,0,0,0.01
2013-4-1,41.8,35.2,29.0,28.0,21.1,17.0,76,58,39,30.21,29.91,0,0,0,0.00
2013-4-2,45.2,33.8,22.5,22.0,18.2,15.0,84,57,30,30.32,30.21,0,0,0,0.00
2013-4-3,50.8,36.7,21.2,23.0,18.1,14.0,80,50,29,30.47,30.32,1,0,0,0.00
2013-4-4,59.7,42.4,23.8,29.0,22.0,13.0,80,49,25,30.34,29.99,0,0,0,0.00
2013-4-5,54.9,44.4,34.0,34.0,28.0,21.0,82,56,30,30.20,30.01,0,0,0,0.00
2013-4-6,71.1,53.0,33.5,50.0,35.3,27.0,81,55,30,30.13,29.62,0,0,0,0.03
2013-4-7,65.3,51.8,40.3,50.0,41.4,35.0,90,70,45,29.94,29.66,0,0,0,0.00
2013-4-8,72.3,55.4,40.4,58.0,49.2,36.0,96,81,57,29.93,29.63,0,0,0,0.76
2013-4-9,76.7,59.9,46.8,64.0,53.1,43.0,94,79,59,29.93,29.77,0,0,0,0.06
2013-4-10,46.9,43.6,39.8,44.0,42.1,38.0,96,94,89,29.93,29.76,2,0,0,0.99
2013-4-11,51.8,46.0,40.3,50.0,44.4,37.0,97,94,86,29.82,29.57,0,0,0,0.67
2013-4-12,43.3,39.8,37.3,40.0,35.7,33.0,92,85,74,29.89,29.60,0,0,0,0.02
2013-4-13,48.0,41.1,35.3,38.0,33.5,29.0,89,75,57,29.98,29.88,0,0,0,0.00
2013-4-14,74.1,56.0,41.7,54.0,44.6,36.0,84,68,44,29.98,29.63,0,0,0,0.00
2013-4-15,64.0,55.3,45.7,57.0,50.7,43.0,94,85,65,29.98,29.67,0,0,0,0.40
2013-4-16,55.8,47.6,42.8,46.0,40.9,38.0,94,78,58,30.25,29.94,0,0,0,0.13
2013-4-17,52.5,47.1,44.0,52.0,43.1,36.0,97,86,73,30.25,29.76,0,0,0,1.99
2013-4-18,63.8,55.2,40.7,61.0,53.5,35.0,98,94,81,29.82,29.43,0,0,0,1.37
2013-4-19,40.5,38.0,35.8,35.0,32.0,29.0,88,79,74,29.96,29.55,0,0,0,0.00
2013-4-20,47.0,38.5,32.1,33.0,29.4,27.0,89,71,50,30.41,29.97,3,0,0,0.00
2013-4-21,53.8,43.3,32.5,39.0,32.7,28.0,83,68,52,30.52,30.32,0,0,0,0.00
2013-4-22,66.3,52.1,36.6,44.0,39.1,33.0,89,64,36,30.32,30.03,4,0,0,0.00
2013-4-23,56.8,48.1,38.3,52.0,45.2,37.0,94,90,73,30.02,29.87,0,0,0,0.70
2013-4-24,50.3,42.2,36.7,38.0,34.8,32.0,94,77,52,30.15,29.93,0,0,0,0.04
2013-4-25,52.8,45.2,37.9,38.0,31.4,26.0,85,61,36,30.32,30.09,8,0,0,0.00
2013-4-26,66.7,51.5,36.1,50.0,41.3,31.0,88,70,51,30.34,30.25,0,0,0,0.00
2013-4-27,68.0,55.2,40.1,51.0,45.6,38.0,95,73,40,30.29,29.98,0,0,0,0.02
2013-4-28,64.9,57.0,52.6,57.0,53.9,50.0,97,90,72,29.98,29.81,0,0,0,0.04
2013-4-29,74.4,62.1,48.1,59.0,54.1,47.0,95,77,52,29.91,29.75,0,0,0,0.00
2013-4-30,85.7,71.0,57.6,63.0,58.6,54.0,90,68,41,29.91,29.77,24,5,0,0.00
2013-5-1,84.8,72.3,57.4,61.0,56.1,52.0,92,61,33,30.09,29.92,17,4,0,0.00
2013-5-2,64.5,56.7,46.3,56.0,50.4,42.0,90,79,68,30.16,30.06,0,0,0,0.26
2013-5-3,60.6,49.9,42.6,57.0,47.7,40.0,96,92,86,30.09,29.89,0,0,0,0.17
2013-5-4,72.2,59.8,52.5,57.0,53.7,50.0,95,82,56,30.02,29.90,0,0,0,0.03
2013-5-5,76.7,61.3,48.6,56.0,50.0,47.0,96,70,35,30.01,29.90,0,0,0,0.02
2013-5-6,77.4,63.4,52.3,50.0,45.0,35.0,79,55,24,30.00,29.92,5,0,0,0.11
2013-5-7,79.7,64.4,47.4,53.0,46.3,42.0,84,55,35,30.02,29.94,0,0,0,0.00
2013-5-8,83.2,66.6,49.3,55.0,48.4,44.0,89,57,27,30.01,29.92,11,1,0,0.04
2013-5-9,72.1,63.1,57.6,63.0,56.8,49.0,96,80,58,29.94,29.78,0,0,0,0.26
2013-5-10,61.3,53.1,47.8,60.0,50.6,46.0,96,91,85,29.97,29.75,0,0,0,0.00
2013-5-11,62.2,52.8,41.9,52.0,40.7,28.0,92,67,32,30.05,29.86,0,0,0,0.00
2013-5-12,57.9,47.8,37.8,32.0,28.6,25.0,71,50,29,30.14,30.06,0,0,0,0.00
2013-5-13,67.9,54.8,37.3,37.0,30.9,26.0,80,44,21,30.18,30.00,0,0,0,0.03
2013-5-14,92.7,73.7,54.6,61.0,51.3,37.0,67,48,23,29.99,29.64,12,2,0,0.04
2013-5-15,86.6,76.3,62.2,62.0,54.0,46.0,77,48,25,29.79,29.64,0,0,0,0.09
2013-5-16,83.9,62.0,55.6,55.0,31.9,-99.9,77,45,26,29.94,29.79,0,-114,0,0.05
2013-5-17,81.4,67.1,58.4,66.0,59.0,49.0,94,77,49,29.99,29.91,0,0,0,0.54
2013-5-18,79.4,69.7,59.6,68.0,63.3,59.0,98,81,58,30.02,29.90,0,0,0,0.00
2013-5-19,90.1,76.3,59.8,69.0,64.5,58.0,96,70,41,29.93,29.70,0,0,0,0.02
2013-5-20,90.3,79.0,65.8,71.0,62.6,55.0,91,61,32,29.78,29.66,0,0,0,0.71
2013-5-21,80.9,72.0,63.4,69.0,65.1,60.0,90,80,61,29.72,29.62,0,0,0,0.36
2013-5-22,71.8,65.4,61.9,67.0,58.4,-99.9,95,83,66,29.74,29.59,0,-22,0,0.47
2013-5-23,61.3,55.1,43.4,57.0,50.9,38.0,94,86,75,30.27,29.74,0,0,0,0.04
2013-5-24,66.3,51.1,37.8,47.0,40.0,35.0,92,68,42,30.42,30.27,0,0,0,0.00
2013-5-25,59.0,51.7,44.3,49.0,43.3,38.0,90,74,52,30.39,30.24,0,0,0,0.07
2013-5-26,61.9,53.7,43.3,55.0,49.6,41.0,95,86,72,30.27,30.09,0,0,0,0.62
2013-5-27,67.7,62.2,56.4,65.0,60.6,55.0,97,94,88,30.09,29.81,0,0,0,0.31
2013-5-28,77.5,69.6,62.4,71.0,66.3,61.0,97,90,79,29.84,29.67,0,0,0,1.28
2013-5-29,84.6,73.8,63.4,73.0,67.1,61.0,95,80,61,29.91,29.75,0,0,0,0.04
2013-5-30,82.1,73.9,64.1,73.0,67.7,61.0,95,81,69,29.89,29.74,0,0,0,0.44
2013-5-31,76.1,70.1,64.1,71.0,66.4,63.0,96,88,73,29.84,29.66,0,0,0,0.47
2013-6-1,74.8,68.0,63.6,69.0,63.8,60.0,93,86,77,29.74,29.65,0,0,0,0.17
2013-6-2,63.5,58.9,51.5,60.0,55.4,49.0,93,88,79,30.03,29.73,0,0,0,0.00
2013-6-3,68.8,57.0,44.5,53.0,48.9,43.0,97,77,49,30.13,30.02,0,0,0,0.00
2013-6-4,72.7,61.6,47.6,54.0,50.4,46.0,95,69,46,30.13,30.04,0,0,0,0.00
2013-6-5,77.9,65.8,55.0,58.0,54.1,50.0,89,68,47,30.06,29.87,0,0,0,0.00
2013-6-6,74.6,63.4,56.9,62.0,54.8,50.0,90,74,55,29.89,29.82,0,0,0,0.09
2013-6-7,74.9,61.6,51.9,59.0,51.8,48.0,86,72,46,29.91,29.86,0,0,0,0.13
2013-6-8,78.4,64.4,48.7,55.0,49.4,46.0,93,62,37,29.97,29.89,8,1,0,0.08
2013-6-9,82.9,71.8,56.7,64.0,56.3,50.0,89,61,39,29.97,29.76,0,0,0,0.01
2013-6-10,80.0,71.2,62.3,66.0,63.1,61.0,96,77,55,29.83,29.71,0,0,0,0.04
2013-6-11,88.6,75.6,60.9,70.0,63.8,58.0,93,69,42,29.91,29.75,0,0,0,0.03
2013-6-12,94.4,78.4,67.7,74.0,70.2,66.0,95,78,44,29.85,29.52,0,0,0,0.86
2013-6-13,79.3,70.2,60.1,65.0,61.0,55.0,96,75,47,30.00,29.60,0,0,0,0.40
2013-6-14,79.4,66.9,54.0,65.0,57.7,52.0,93,74,49,30.10,29.96,0,0,0,0.04
2013-6-15,81.7,70.8,60.3,70.0,64.6,57.0,93,81,63,30.02,29.84,0,0,0,0.10
2013-6-16,82.9,73.8,66.8,69.0,66.6,64.0,91,79,59,29.91,29.84,0,0,0,0.02
2013-6-17,87.4,76.8,62.4,68.0,62.2,56.0,97,65,37,29.92,29.82,0,0,0,0.06
2013-6-18,77.2,67.4,57.8,65.0,59.2,51.0,88,76,58,30.02,29.85,0,0,0,0.00
2013-6-19,82.9,68.2,54.1,66.0,57.0,50.0,92,69,48,30.10,30.02,0,0,0,0.02
2013-6-20,89.8,75.4,59.7,68.0,61.1,55.0,92,64,37,30.11,30.01,0,0,0,0.05
2013-6-21,86.9,73.6,66.5,71.0,66.5,63.0,94,79,54,30.14,29.92,0,0,0,0.81
2013-6-22,80.1,73.2,66.6,74.0,69.4,65.0,94,88,77,30.05,29.93,0,0,0,0.20
2013-6-23,85.7,74.1,65.2,76.0,69.3,64.0,96,85,69,30.01,29.90,0,0,0,0.04
2013-6-24,85.1,72.1,67.0,77.0,68.6,65.0,96,89,70,30.07,29.85,0,0,0,0.57
2013-6-25,84.7,75.8,68.1,77.0,71.5,66.0,97,87,69,29.91,29.77,0,0,0,0.02
2013-6-26,82.2,73.7,68.1,75.0,70.1,66.0,96,89,75,29.80,29.67,0,0,0,0.26
2013-6-27,88.0,77.8,67.5,76.0,70.1,63.0,98,79,57,29.77,29.66,0,0,0,0.09
2013-6-28,82.1,72.8,65.4,69.0,64.3,61.0,94,75,54,29.70,29.58,0,0,0,0.37
2013-6-29,70.3,66.4,63.0,67.0,63.5,57.0,96,90,77,29.72,29.56,0,0,0,0.75
2013-6-30,80.6,69.3,62.5,67.0,59.1,46.0,91,72,47,29.94,29.72,0,0,0,0.00
2013-7-1,77.8,68.5,58.4,58.0,54.4,50.0,84,62,43,30.01,29.93,0,0,0,0.00
2013-7-2,71.0,65.3,59.5,60.0,57.1,55.0,86,75,65,30.03,29.99,0,0,0,0.00
2013-7-3,70.9,63.6,58.2,64.0,60.4,56.0,96,89,78,30.05,29.99,0,0,0,0.17
2013-7-4,81.2,69.7,56.2,68.0,62.5,55.0,96,80,59,30.08,30.00,0,0,0,0.02
2013-7-5,82.4,71.9,57.3,70.0,64.3,56.0,97,78,55,30.06,29.98,0,0,0,0.04
2013-7-6,79.6,71.4,61.6,71.0,66.8,60.0,97,86,70,30.04,29.95,0,0,0,0.06
2013-7-7,87.6,77.0,66.6,76.0,70.8,65.0,96,82,64,29.99,29.91,0,0,0,0.05
2013-7-8,85.9,77.1,70.3,76.0,72.0,67.0,93,84,68,30.00,29.91,0,0,0,0.16
2013-7-9,85.7,77.8,72.5,80.0,75.1,71.0,97,91,81,29.98,29.84,0,0,0,0.39
2013-7-10,84.7,77.5,64.7,75.0,70.2,59.0,95,79,57,29.97,29.79,0,0,0,0.09
2013-7-11,82.7,70.9,60.4,66.0,61.2,57.0,95,74,46,30.06,29.97,0,0,0,0.00
2013-7-12,83.6,67.0,54.1,69.0,54.5,-99.9,97,72,34,30.12,30.04,0,-23,0,0.38
2013-7-13,84.7,71.9,55.9,69.0,63.2,55.0,98,76,50,30.12,30.05,0,0,0,0.11
2013-7-14,90.2,76.8,64.7,77.0,70.0,63.0,97,81,61,30.16,30.09,0,0,0,0.12
2013-7-15,89.2,79.0,68.6,79.0,73.5,67.0,97,84,67,30.22,30.15,0,0,0,0.14
2013-7-16,90.6,80.6,70.6,78.0,74.3,69.0,97,82,62,30.28,30.20,0,0,0,0.04
2013-7-17,92.1,81.7,69.8,79.0,74.2,68.0,96,79,58,30.29,30.14,0,0,0,0.08
2013-7-18,91.5,82.4,74.6,80.0,76.0,72.0,95,81,62,30.15,29.94,0,0,0,0.00
2013-7-19,92.7,83.4,74.0,78.0,74.1,72.0,93,75,54,29.93,29.74,0,0,0,0.00
2013-7-20,86.5,78.0,70.3,73.0,68.7,65.0,95,75,51,29.89,29.77,0,0,0,0.19
2013-7-21,83.5,75.0,64.9,74.0,70.2,64.0,97,85,68,29.92,29.82,0,0,0,0.01
2013-7-22,86.4,75.9,66.5,73.0,70.0,65.0,98,83,60,29.83,29.71,0,0,0,0.19
2013-7-23,79.5,70.8,59.9,70.0,64.6,56.0,96,82,56,29.93,29.67,0,0,0,0.06
2013-7-24,78.4,65.7,54.5,59.0,56.0,52.0,95,73,48,30.03,29.93,0,0,0,0.07
2013-7-25,79.1,65.4,50.9,63.0,56.9,49.0,97,76,52,30.10,30.02,0,0,0,0.07
2013-7-26,72.9,66.1,60.7,68.0,62.4,58.0,94,88,75,30.03,29.87,0,0,0,0.05
2013-7-27,67.1,60.7,53.7,59.0,54.4,49.0,95,81,59,29.92,29.86,0,0,0,0.07
2013-7-28,69.8,60.8,50.8,55.0,51.6,48.0,91,73,54,30.02,29.89,0,0,0,0.01
2013-7-29,77.4,63.7,50.8,64.0,55.7,49.0,95,77,52,30.15,30.02,0,0,0,0.03
2013-7-30,67.4,62.7,54.5,66.0,61.3,53.0,97,95,88,30.15,30.04,0,0,0,0.47
2013-7-31,74.4,68.6,64.7,68.0,66.3,64.0,98,92,80,30.03,29.93,0,0,0,0.10
2013-8-1,78.8,69.3,60.8,66.0,60.6,57.0,96,76,48,29.98,29.93,0,0,0,0.05
2013-8-2,82.5,72.2,61.4,72.0,66.8,59.0,96,84,65,29.93,29.83,0,0,0,0.69
2013-8-3,79.4,70.1,59.8,67.0,61.7,56.0,96,77,48,30.08,29.92,0,0,0,0.08
2013-8-4,80.3,67.7,55.5,65.0,59.1,54.0,96,76,44,30.16,30.07,0,0,0,0.00
2013-8-5,72.0,64.9,55.9,66.0,61.3,54.0,95,88,77,30.09,29.85,0,0,0,0.11
2013-8-6,82.3,72.3,61.6,75.0,69.0,60.0,98,90,75,29.88,29.80,0,0,0,0.01
2013-8-7,85.1,76.4,68.6,78.0,72.3,66.0,97,87,70,29.90,29.77,0,0,0,0.04
2013-8-8,81.5,71.6,63.8,69.0,64.6,59.0,97,80,57,29.97,29.90,0,0,0,0.07
2013-8-9,80.9,69.8,55.9,69.0,63.1,54.0,97,80,62,30.01,29.95,0,0,0,0.05
2013-8-10,81.2,71.4,61.1,68.0,62.9,59.0,95,76,53,30.09,30.02,0,0,0,0.06
2013-8-11,81.1,68.9,54.7,69.0,61.8,53.0,97,80,56,30.11,30.01,0,0,0,0.06
2013-8-12,81.8,72.3,61.7,73.0,67.0,60.0,96,84,66,30.03,29.84,0,0,0,0.02
2013-8-13,73.6,65.6,54.2,66.0,56.6,51.0,94,75,47,30.12,29.89,0,0,0,0.07
2013-8-14,75.8,60.7,48.7,58.0,52.4,47.0,96,77,42,30.20,30.12,0,0,0,0.07
2013-8-15,74.7,61.9,48.3,60.0,54.4,47.0,96,78,55,30.17,30.09,0,0,0,0.06
2013-8-16,82.2,66.8,52.2,63.0,57.7,51.0,97,75,45,30.16,30.10,0,0,0,0.06
2013-8-17,81.6,66.2,52.3,64.0,57.6,51.0,97,77,45,30.21,30.12,0,0,0,0.07
2013-8-18,82.8,68.0,53.8,68.0,59.0,52.0,98,76,46,30.18,30.07,0,0,0,0.07
2013-8-19,84.1,70.0,54.4,68.0,61.7,53.0,97,77,53,30.11,30.00,0,0,0,0.07
2013-8-20,86.3,72.4,60.0,70.0,64.8,58.0,96,79,52,30.10,30.00,0,0,0,0.07
2013-8-21,88.1,75.1,61.5,72.0,67.1,60.0,97,78,52,30.06,29.95,0,0,0,0.04
2013-8-22,73.5,70.1,64.9,70.0,68.0,64.0,96,93,85,30.10,29.97,0,0,0,1.08
2013-8-23,84.1,70.6,60.4,72.0,63.9,57.0,98,82,51,30.14,30.06,0,0,0,0.07
2013-8-24,83.3,70.0,55.8,70.0,63.1,54.0,97,80,61,30.23,30.14,0,0,0,0.00
2013-8-25,86.4,73.2,60.3,73.0,65.8,58.0,92,79,61,30.23,30.12,0,0,0,0.00
2013-8-26,88.0,75.4,63.2,78.0,70.1,61.0,95,84,66,30.14,29.98,0,0,0,0.00
2013-8-27,90.8,80.3,71.4,79.0,73.4,69.0,94,80,62,29.99,29.84,0,0,0,0.05
2013-8-28,88.7,79.4,67.6,79.0,71.9,66.0,94,78,68,29.99,29.82,0,0,0,0.05
2013-8-29,86.9,75.9,67.5,75.0,70.5,66.0,97,85,57,30.04,29.94,0,0,0,0.06
2013-8-30,93.8,77.5,64.6,80.0,70.8,63.0,97,81,52,29.95,29.73,0,0,0,0.41
2013-8-31,83.0,74.1,67.7,75.0,70.5,66.0,97,88,75,29.81,29.72,0,0,0,0.07
2013-9-1,83.3,73.9,63.0,74.0,69.7,62.0,97,87,68,29.77,29.70,0,0,0,0.07
2013-9-2,79.3,70.1,61.8,69.0,64.2,60.0,96,82,60,29.96,29.76,0,0,0,0.07
2013-9-3,74.9,64.1,54.2,63.0,58.0,53.0,97,82,58,30.07,29.95,0,0,0,0.08
2013-9-4,81.2,67.1,53.8,66.0,59.3,52.0,96,78,50,30.12,30.03,0,0,0,0.06
2013-9-5,79.9,67.9,58.4,70.0,60.7,54.0,98,79,56,30.19,30.09,0,0,0,0.07
2013-9-6,85.9,70.1,56.6,71.0,62.1,54.0,95,77,55,30.19,29.99,0,0,0,0.06
2013-9-7,85.4,72.0,59.9,71.0,65.5,58.0,98,81,54,29.99,29.86,0,0,0,0.09
2013-9-8,87.1,75.7,68.6,74.0,70.0,67.0,94,83,63,29.95,29.88,0,0,0,0.00
2013-9-9,94.5,79.7,67.6,78.0,72.4,67.0,97,80,55,29.91,29.79,0,0,0,0.00
2013-9-10,95.2,82.4,71.2,73.0,68.9,66.0,86,66,40,29.98,29.86,0,0,0,0.00
2013-9-11,91.9,79.6,70.7,73.0,69.1,67.0,87,71,49,30.01,29.95,0,0,0,0.00
2013-9-12,82.5,72.5,58.4,69.0,60.9,52.0,94,70,38,30.04,29.92,0,0,0,0.00
2013-9-13,70.6,59.4,47.0,56.0,47.9,43.0,90,69,38,30.15,30.03,0,0,0,0.07
2013-9-14,71.8,55.7,40.5,50.0,43.8,39.0,97,69,35,30.18,30.03,0,0,0,0.00
2013-9-15,65.4,58.0,49.0,60.0,53.2,44.0,95,84,64,30.13,29.95,0,0,0,0.10
2013-9-16,71.3,59.3,47.5,58.0,52.1,45.0,97,79,48,30.33,30.13,0,0,0,0.08
2013-9-17,72.1,58.6,43.0,56.0,50.8,42.0,97,77,54,30.31,30.09,0,0,0,0.05
2013-9-18,83.9,68.0,56.2,69.0,62.2,52.0,94,83,59,30.09,29.90,0,0,0,0.64
2013-9-19,92.4,78.7,69.3,73.0,70.1,67.0,96,77,49,29.93,29.75,0,0,0,0.01
2013-9-20,75.5,67.8,57.4,68.0,62.1,53.0,96,83,64,29.83,29.74,0,0,0,0.13
2013-9-21,69.4,59.0,49.9,54.0,50.9,47.0,94,76,50,29.94,29.80,0,0,0,0.00
2013-9-22,72.9,56.1,42.9,54.0,48.0,42.0,97,77,46,30.04,29.93,0,0,0,0.00
2013-9-23,74.5,56.5,42.5,53.0,47.5,41.0,97,75,42,30.09,29.99,0,0,0,0.00
2013-9-24,77.2,59.7,43.7,56.0,50.2,42.0,97,74,42,30.03,29.88,0,0,0,0.00
2013-9-25,79.1,61.9,49.0,56.0,51.4,47.0,94,72,40,29.93,29.87,0,0,0,0.00
2013-9-26,81.9,61.9,47.1,60.0,51.1,46.0,97,73,33,30.05,29.93,0,0,0,0.00
2013-9-27,83.6,64.1,45.3,58.0,50.8,44.0,97,67,34,30.14,30.02,0,0,0,0.00
2013-9-28,84.0,68.6,48.9,65.0,55.5,45.0,92,66,41,30.06,29.87,0,0,0,0.06
2013-9-29,71.5,59.2,47.3,65.0,51.8,45.0,97,79,45,30.04,29.92,0,0,0,0.26
2013-9-30,77.5,58.4,40.9,56.0,48.0,40.0,98,73,38,30.00,29.86,0,0,0,0.00
2013-10-1,81.2,68.7,58.2,67.0,63.1,55.0,96,84,57,29.95,29.87,0,0,0,0.00
2013-10-2,82.8,71.6,62.5,67.0,64.2,59.0,97,80,49,30.05,29.94,0,0,0,0.00
2013-10-3,81.2,68.8,60.7,72.0,65.7,59.0,98,90,64,29.94,29.81,0,0,0,0.63
2013-10-4,85.1,71.7,63.5,72.0,66.7,62.0,97,85,57,29.94,29.87,0,0,0,0.00
2013-10-5,82.6,71.6,62.1,72.0,68.3,60.0,96,89,68,29.91,29.74,0,0,0,0.23
2013-10-6,61.4,53.9,46.9,59.0,46.5,41.0,93,77,51,29.78,29.69,0,0,0,0.16
2013-10-7,69.9,54.9,43.0,50.0,46.2,41.0,96,75,44,30.07,29.78,0,0,0,0.00
2013-10-8,77.4,60.2,43.2,53.0,47.4,42.0,96,67,35,30.18,30.07,0,0,0,0.00
2013-10-9,74.4,56.3,40.8,51.0,45.6,39.0,97,72,35,30.23,30.10,0,0,0,0.00
2013-10-10,77.7,58.2,41.8,58.0,49.7,40.0,97,77,44,30.16,30.02,0,0,0,0.00
2013-10-11,78.1,63.8,48.9,60.0,54.3,47.0,95,74,48,30.05,29.91,0,0,0,0.00
2013-10-12,70.4,61.5,49.8,64.0,54.6,42.0,93,78,61,30.17,29.93,0,0,0,0.00
2013-10-13,66.7,52.5,41.1,46.0,40.2,37.0,90,67,35,30.39,30.18,0,0,0,0.00
2013-10-14,67.9,47.9,35.0,51.0,30.9,-99.9,97,68,41,30.39,30.10,0,-83,0,0.00
2013-10-15,68.4,57.5,49.2,64.0,52.4,44.0,96,83,72,30.10,29.77,0,0,0,0.04
2013-10-16,56.1,51.0,44.7,47.0,44.8,41.0,89,80,70,29.95,29.87,0,0,0,0.00
2013-10-17,58.5,49.0,38.5,47.0,43.8,36.0,94,83,57,29.94,29.83,0,0,0,0.16
2013-10-18,51.4,45.0,37.8,44.0,40.1,35.0,95,83,68,29.99,29.85,0,0,0,0.00
2013-10-19,55.4,47.8,41.8,42.0,39.0,34.0,91,73,46,29.95,29.80,0,0,0,0.01
2013-10-20,69.1,53.5,40.8,47.0,42.6,38.0,91,69,41,29.88,29.71,0,0,0,0.01
2013-10-21,57.0,45.5,32.4,49.0,35.0,25.0,84,68,48,29.99,29.80,0,0,0,0.00
2013-10-22,43.9,35.2,26.2,37.0,31.6,23.0,95,87,68,30.01,29.91,0,0,0,0.31
2013-10-23,45.2,38.1,30.0,37.0,31.9,28.0,95,80,56,30.05,29.92,0,0,0,0.01
2013-10-24,44.2,38.7,32.5,34.0,29.3,25.0,88,70,51,30.32,30.04,0,0,0,0.00
2013-10-25,52.6,39.1,27.8,35.0,28.7,24.0,92,69,42,30.44,30.11,0,0,0,0.00
2013-10-26,56.4,46.1,35.4,39.0,32.6,29.0,76,60,44,30.10,29.89,0,0,0,0.00
2013-10-27,56.2,40.9,27.2,36.0,30.3,24.0,92,69,41,30.09,29.99,0,0,0,0.00
2013-10-28,62.4,44.1,29.2,45.0,36.8,26.0,92,77,51,30.34,30.07,0,0,0,0.00
2013-10-29,57.9,45.9,35.5,48.0,41.1,34.0,96,84,57,30.34,30.13,0,0,0,0.00
2013-10-30,63.6,54.5,47.7,63.0,53.6,46.0,98,96,91,30.13,29.76,0,0,0,0.87
2013-10-31,64.0,58.8,46.7,64.0,57.5,44.0,98,95,90,29.76,29.21,0,0,0,0.82
2013-11-1,51.4,47.5,43.8,45.0,44.0,42.0,93,88,74,29.75,29.43,0,0,0,0.02
2013-11-2,47.1,42.0,37.1,42.0,39.1,35.0,95,89,80,30.15,29.75,0,0,0,0.00
2013-11-3,52.5,41.4,29.5,43.0,35.4,28.0,98,81,55,30.31,30.15,0,0,0,0.01
2013-11-4,58.0,49.4,41.4,46.0,41.9,37.0,84,76,60,30.26,30.09,0,0,0,0.00
2013-11-5,54.6,52.5,49.7,52.0,49.0,46.0,95,87,82,30.26,29.96,0,0,0,0.06
2013-11-6,57.5,47.8,35.1,56.0,45.4,30.0,96,91,82,30.18,29.80,0,0,0,0.86
2013-11-7,45.8,35.5,29.7,38.0,31.3,27.0,93,84,70,30.28,30.19,0,0,0,0.00
2013-11-8,50.4,40.2,28.3,36.0,32.5,26.0,93,75,52,30.35,29.98,0,0,0,0.00
2013-11-9,60.7,50.6,42.7,43.0,39.7,36.0,81,67,49,30.14,29.89,0,0,0,0.00
2013-11-10,49.4,41.4,33.4,36.0,32.7,29.0,85,72,53,30.36,30.15,0,0,0,0.00
2013-11-11,48.1,39.0,25.7,40.0,33.2,19.0,94,80,66,30.51,30.10,1,0,0,0.11
2013-11-12,33.4,26.2,22.0,25.0,20.1,17.0,84,78,67,30.73,30.52,0,0,0,0.02
2013-11-13,39.7,28.8,17.2,27.0,21.6,14.0,88,75,57,30.64,30.22,0,0,0,0.00
2013-11-14,52.1,38.8,30.2,32.0,27.8,23.0,81,66,44,30.21,29.98,0,0,0,0.00
2013-11-15,48.5,41.5,34.8,40.0,34.5,30.0,90,77,57,30.01,29.93,0,0,0,0.00
2013-11-16,60.4,52.7,38.2,57.0,50.1,35.0,94,91,80,29.95,29.57,0,0,0,0.25
2013-11-17,69.0,62.0,55.3,66.0,60.0,53.0,96,93,87,29.57,29.19,31,6,0,1.14
2013-11-19,40.0,35.1,32.7,31.0,30.4,29.0,88,83,71,30.31,30.29,0,0,0,0.00
2013-11-20,43.4,36.4,26.5,39.0,32.2,24.0,93,85,71,30.29,30.10,0,0,0,0.23
2013-11-21,49.6,45.1,41.0,47.0,43.3,38.0,97,93,87,30.20,30.11,0,0,0,0.17
2013-11-22,44.0,36.7,27.2,43.0,33.6,24.0,96,89,78,30.50,30.19,0,0,0,0.01
2013-11-23,26.8,22.6,15.3,24.0,15.3,9.0,92,74,55,30.75,30.47,11,0,0,0.00
2013-11-24,28.4,18.6,10.4,15.0,10.5,6.0,84,72,45,30.77,30.44,7,0,0,0.00
2013-11-25,32.8,28.5,19.6,27.0,21.8,14.0,86,76,64,30.43,30.11,0,0,0,0.00
2013-11-26,37.2,29.8,17.9,29.0,22.9,8.0,89,76,59,30.20,30.04,0,0,0,0.00
2013-11-27,29.3,20.3,13.5,16.0,11.8,7.0,85,70,52,30.31,30.18,17,0,0,0.00
2013-11-28,36.2,26.7,19.3,20.0,17.5,14.0,85,70,51,30.52,30.22,0,0,0,0.00
2013-11-29,36.2,25.5,13.0,24.0,18.6,11.0,94,76,53,30.66,30.43,0,0,0,0.00
2013-11-30,52.3,35.9,24.2,35.0,28.1,21.0,90,75,49,30.42,30.07,0,0,0,0.00
2013-12-1,47.2,36.1,29.4,37.0,31.3,26.0,92,83,64,30.12,29.99,0,0,0,0.00
2013-12-2,43.5,37.4,31.0,37.0,33.6,29.0,94,86,70,29.98,29.73,0,0,0,0.03
2013-12-3,49.5,44.7,38.3,49.0,43.7,37.0,97,96,93,29.73,29.64,0,0,0,0.00
2013-12-4,55.7,49.7,38.0,55.0,48.4,35.0,98,95,87,29.73,29.49,0,0,0,0.01
2013-12-5,37.1,26.3,21.5,34.0,20.5,15.0,90,79,72,30.30,29.74,0,0,0,0.00
2013-12-6,21.5,18.1,12.9,15.0,11.9,8.0,82,77,69,30.59,30.27,9,0,0,0.00
2013-12-7,22.0,13.3,6.6,10.0,6.8,2.0,85,75,56,30.75,30.59,6,0,0,0.00
2013-12-8,25.7,21.5,9.4,24.0,18.1,6.0,94,86,79,30.63,29.99,0,0,0,0.00
2013-12-9,25.7,17.4,1.7,24.0,12.2,-4.0,92,80,69,30.29,29.98,5,0,0,0.00
2013-12-10,25.1,13.5,-5.7,15.0,6.1,-10.0,84,73,57,30.35,30.10,16,1,0,0.00
2013-12-11,20.5,13.7,-0.5,16.0,8.0,-7.0,91,78,62,30.64,30.31,0,0,0,0.00
2013-12-12,23.2,10.5,-5.2,14.0,4.3,-11.0,88,76,65,30.61,30.26,7,0,0,0.00
2013-12-13,33.2,22.3,8.4,27.0,18.7,6.0,94,86,73,30.26,30.09,0,0,0,0.03
2013-12-14,31.7,28.5,17.1,31.0,26.6,14.0,96,92,87,30.10,29.90,0,0,0,0.01
2013-12-15,18.2,14.8,12.0,16.0,9.9,8.0,91,81,75,30.17,30.00,0,0,0,0.00
2013-12-16,20.9,17.4,13.3,19.0,14.1,10.0,100,87,80,30.18,30.05,0,0,0,0.00
2013-12-17,34.7,26.1,18.5,29.0,21.8,16.0,94,84,69,30.16,30.01,0,0,0,0.02
2013-12-18,38.4,25.0,12.7,33.0,19.5,9.0,92,80,69,30.20,29.86,0,0,0,0.00
2013-12-19,41.2,36.0,28.4,37.0,33.4,26.0,96,90,82,29.93,29.78,0,0,0,0.19
2013-12-20,36.1,34.9,31.7,35.0,34.2,31.0,97,97,95,29.82,29.71,0,0,0,0.25
2013-12-21,34.7,32.0,29.5,34.0,31.0,28.0,97,96,93,29.85,29.55,0,0,0,0.33
2013-12-22,34.4,31.0,25.1,34.0,29.4,22.0,97,93,88,30.17,29.60,0,0,0,0.12
2013-12-23,24.6,12.7,1.9,22.0,8.8,-4.0,91,84,77,30.54,30.17,0,0,0,0.00
2013-12-24,20.2,9.0,-1.1,15.0,4.0,-6.0,85,80,73,30.64,30.40,11,0,0,0.00
2013-12-25,28.7,25.6,20.3,27.0,22.2,15.0,93,87,77,30.39,30.16,0,0,0,0.00
2013-12-26,36.1,28.2,15.4,31.0,23.2,12.0,89,81,73,30.33,30.16,0,0,0,0.00
2013-12-27,44.1,34.8,23.3,36.0,30.5,22.0,95,84,68,30.31,30.13,2,0,0,0.00
2013-12-28,50.9,39.9,31.4,41.0,34.4,29.0,92,81,65,30.13,29.86,0,0,0,0.00
2013-12-29,37.0,28.7,14.4,33.0,25.4,9.0,95,87,79,30.22,29.78,0,0,0,0.00
2013-12-30,15.5,10.7,3.3,10.0,5.6,-2.0,88,80,72,30.38,30.23,0,0,0,0.00
2013-12-31,16.3,9.9,-2.2,13.0,6.6,-6.0,92,86,82,30.43,30.24,0,0,0,0.00
2014-1-1,24.3,20.7,16.4,21.0,17.9,14.0,91,89,84,30.30,30.16,0,0,0,0.00
2014-1-2,20.8,13.6,1.9,19.0,9.3,-4.0,91,83,75,30.46,30.13,0,0,0,0.00